CDT,Max TemperatureF,Mean TemperatureF,Min TemperatureF,Max Dew PointF,MeanDew PointF,Min DewpointF,Max Humidity, Mean Humidity, Min Humidity, Max Sea Level PressureIn, Mean Sea Level PressureIn, Min Sea Level PressureIn, Max VisibilityMiles, Mean VisibilityMiles, Min VisibilityMiles, Max Wind SpeedMPH, Mean Wind SpeedMPH, Max Gust SpeedMPH,PrecipitationIn, CloudCover, Events, WindDirDegrees
2013-9-1,102,90,78,70,66,59,74,52,29,29.89,29.83,29.76,10,10,10,15,9,18,0.00,0,,177
2013-9-2,96,87,77,70,68,65,74,58,41,29.96,29.89,29.84,10,10,10,16,6,22,0.00,0,,14
2013-9-3,103,88,73,69,64,60,74,50,25,29.97,29.91,29.83,10,10,10,13,4,17,0.00,1,,22
2013-9-4,103,89,74,69,65,61,79,54,29,30.02,29.96,29.90,10,10,10,21,6,26,0.00,1,,134
2013-9-5,99,87,74,70,67,63,87,59,31,30.09,30.03,29.97,10,10,10,17,5,22,0.00,0,,166
2013-9-6,100,87,73,72,65,54,82,53,24,30.08,30.00,29.92,10,10,5,18,6,24,0.00,1,,165
2013-9-7,99,87,74,72,68,58,87,57,26,30.02,29.97,29.88,10,10,10,36,8,44,0.00,1,,165
2013-9-8,97,83,69,70,66,59,93,63,32,29.99,29.93,29.85,10,10,10,22,8,26,0.00,1,,153
2013-9-9,96,83,69,72,68,61,90,63,36,30.00,29.95,29.89,10,9,1,41,8,51,0.28,2,Rain-Thunderstorm,177
2013-9-10,91,82,73,73,70,62,93,70,47,30.07,30.02,29.98,10,10,9,23,6,31,0.24,2,Rain,148
2013-9-11,96,83,70,72,66,61,93,64,34,30.13,30.05,29.97,10,10,7,16,5,21,0.00,1,,146
2013-9-12,96,84,71,69,64,58,87,58,29,30.06,29.99,29.89,10,10,10,14,4,23,0.00,1,,157
2013-9-13,98,84,70,67,63,59,84,57,29,29.96,29.89,29.79,10,10,10,17,5,21,0.00,1,,161
2013-9-14,98,85,72,68,64,61,84,57,30,29.92,29.87,29.81,10,10,9,17,6,21,0.00,2,,115
2013-9-15,94,84,74,71,67,63,87,64,41,30.01,29.96,29.91,10,10,9,15,7,26,0.00,1,,147
2013-9-16,95,84,73,72,64,54,87,56,24,30.06,30.01,29.95,10,10,10,15,5,18,0.00,0,,115
2013-9-17,94,83,71,70,67,62,84,60,36,30.06,30.00,29.91,10,10,10,13,4,20,0.00,1,,173
2013-9-18,97,86,74,72,67,59,82,57,31,30.01,29.94,29.85,10,10,10,20,9,26,0.00,0,,174
2013-9-19,94,84,74,74,72,68,100,72,44,30.00,29.91,29.82,10,8,0,23,8,29,1.38,5,Fog-Rain-Thunderstorm,130
2013-9-20,77,74,71,75,72,69,100,94,87,29.91,29.85,29.81,10,6,1,23,9,28,1.74,8,Rain-Thunderstorm,40
2013-9-21,85,74,62,70,58,44,90,58,25,29.95,29.89,29.84,10,10,6,21,11,25,0.00,2,Rain,2
2013-9-22,84,69,53,58,52,48,93,62,31,29.94,29.86,29.79,10,10,10,15,5,18,0.00,0,,31
2013-9-23,87,72,57,62,56,49,87,58,29,29.86,29.80,29.74,10,10,10,10,2,14,0.00,0,,145
2013-9-24,95,79,63,68,61,57,93,62,30,29.92,29.86,29.82,10,10,10,12,3,17,0.00,0,,6
2013-9-25,95,77,59,62,56,51,97,62,26,29.89,29.83,29.76,10,10,10,13,4,21,0.00,0,,181
2013-9-26,92,79,65,61,57,52,81,54,26,29.88,29.83,29.79,10,10,10,18,9,23,0.00,0,,160
2013-9-27,90,81,71,72,69,61,87,70,52,29.94,29.88,29.82,10,10,8,22,12,28,0.00,5,,150
2013-9-28,88,78,68,79,72,66,93,82,70,30.04,29.93,29.86,10,7,0,29,11,109,1.73,7,Fog-Rain-Thunderstorm,108
2013-9-29,80,72,63,65,62,58,93,69,45,30.06,30.00,29.92,10,10,3,15,6,18,0.06,6,Rain,337
2013-9-30,85,71,57,64,59,53,100,70,39,29.93,29.87,29.81,10,10,10,9,3,13,0.00,0,,158